NOAA 17 DEB

Satellite information

Favourite Embed

Satellite Type and Status

DEBRISIN ORBIT

Key statistics

Satellite NOAA 17 DEB at a glance.

Uptime

8518

Days in orbit

Revolutions

≈ 14.6

Per day

Orbit

SSO

Sun Synchronous Orbit

Inclination

98.7

Latest

Satellite identification and parameters

Extended collection of information and parameters for NOAA 17 DEB.

Object identification

Identified? True

Debris? True

Object name: NOAA 17 DEB

International designator: 2002-032CJ

Object number (NORAD): 48749

Object ID (CCSDS): 48749

Country: UNITED STATES OF AMERICA (US)

Current information (Y/N): Y

RCS size: SMALL

Orbital parameters

Period: 98.494 minutes

Inclination: 98.7016 deg

SMA: 7064.789 km

Apoapsis: 687.927 km

Periapsis: 685.381 km

RAAN: 269.8227 deg

Eccentricy: 0.00018015

Argument of periapsis: 258.4099 deg

Mean anomaly: 101.6899 deg

Mean motion: 14.62022177 rev/day

Mean motion (dot): 0.00032955 rev/day2

B* drag term: 0.0065483675 1/REarth

Two-line elements (TLE)

Creation date: Oct. 18, 2025, 2:17 a.m.

Reference frame: TEME

Reference center: EARTH

Epoch: Oct. 17, 2025, 9:50 p.m. UTC

TLE line 0: 0 NOAA 17 DEB

TLE line 1: 1 48749U 02032CJ 25290.90982326 .00032955 00000-0 65484-2 0 9999

TLE line 2: 2 48749 98.7016 269.8227 0001801 258.4099 101.6899 14.62022177238838

Live tracking on map

Real-time ground track for satellite NOAA 17 DEB.

In-orbit conjunctions

A list of the most updated potential collisions computed for object NOAA 17 DEB.

Target Orbit TCA Probability of collision Miss distance Type
SARA SSO 2025-08-04 19:49:01 0.0002178928 98.0 (m) PAYLOAD
FENGYUN 1C DEB SSO 2024-11-15 16:35:07 0.0001915338 448.0 (m) DEBRIS

Associated space launch

NOAA M carried weather imagers and microwave and infrared sounders, as well as a SARSAT search-and-rescue package. It had an on-orbit mass of 1475 kg.

NOAA 17 DEB was lifted into orbit during the mission ‘Titan II SLV | NOAA 17’, on board a Titan II SLV space rocket.

The launch took place on June 24, 2002, 6:23 p.m. from Space Launch Complex 4W.

For more information about the launch, click the button.

Launch to space Titan II SLV | NOAA 17
Titan II SLV | NOAA 17

Agency: N/A

Status: Launch Successful

Launch date: June 24, 2002, 6:23 p.m. UTC

Rocket: Titan II SLV

Launch pad: Space Launch Complex 4W

Location: Vandenberg SFB, CA, USA

...

Latest news about this satellite

There are no fresh news available about this satellite. Check back as we update our databases every day.


Newsletter sign-up

Weekly statistics, charts and insights to help you stay on top of the space industry.